Location: Beccas
(43.4309°N, 0.1528°E)
Time: 22:46:09
(UTC+00:00)

Cosmos 1844 Rocket - Pass Details

Date: 15 October 2021
Orbit: 826 x 843 km, 71.0° (Epoch: 26 November)

Event Time Altitude Azimuth Distance (km) Brightness Sun altitude
Rises 19:55:30 0° 340° (NNW) 3,377 6.3 -29.5°
Reaches altitude 10° 19:58:08 10° 349° (N) 2,438 5.4 -29.9°
Enters shadow 20:00:42 24° 8° (N) 1,644 4.2 -30.4°
